Weather History for Oscoda, MI

Change the Weather History Date:

Sunday, April 21, 2013

  Actual Average Record
Temperature  
Mean Temperature 28 °F -  
Max Temperature 41 °F 51 °F 73 °F (2006)
Min Temperature 15 °F 32 °F 15 °F (2013)
Degree Days  
Heating Degree Days 37    
Moisture  
Dew Point 22 °F    
Average Humidity 69    
Maximum Humidity 89    
Minimum Humidity 35    
Precipitation  
Precipitation 0.00 in - - ()
Sea Level Pressure  
Sea Level Pressure 30.54 in    
Wind  
Wind Speed 4 mph (SE)    
Max Wind Speed 14 mph    
Max Gust Speed 18 mph    
Visibility 10 miles    
Events      
Averages and records for this station are not official NWS values.
T = Trace of Precipitation, MM = Missing Value Source: NWS Daily Summary

Daily Weather History Graph

Daily Weather History Graph

Search for Another Location

Airport:

Trip Planner

Search our weather history database for the weather conditions in past years. The results will help you decide how hot, cold, wet, or windy it might be!

Date:

Astronomy

Apr. 21, 2013 Rise Set
Actual Time 6:39 AM EDT 8:25 PM EDT
Civil Twilight 6:08 AM EDT 8:56 PM EDT
Nautical Twilight 5:30 AM EDT 9:34 PM EDT
Astronomical Twilight 4:49 AM EDT 10:15 PM EDT
Moon 4:00 PM EDT (4/21) 4:11 AM EDT (4/21)
Length of Visible Light 14h 48m
Length of Day
13h 46m
Waxing Gibbous, 79% of the Moon is Illuminated
Apr 21
Waxing Gibbous
Apr 25
Full
May 2
Last Quarter
May 9
New
May 18
First Quarter

Hourly Weather History & Observations

Time (EDT) Temp. Windchill Dew Point Humidity Pressure Visibility Wind Dir Wind Speed Gust Speed Precip Events Conditions
12:14 AM 24.8 °F 19.1 °F 14.9 °F 66% 30.44 in 10.0 mi WNW 4.6 mph - N/A   Clear
12:34 AM 24.6 °F 20.3 °F 15.3 °F 68% 30.45 in 10.0 mi NNW 3.5 mph - N/A   Clear
12:54 AM 23.7 °F - 15.1 °F 70% 30.45 in 10.0 mi Calm Calm - N/A   Clear
1:14 AM 23.0 °F - 14.9 °F 71% 30.46 in 10.0 mi Calm Calm - N/A   Clear
1:34 AM 22.8 °F - 14.9 °F 72% 30.47 in 10.0 mi Calm Calm - N/A   Clear
1:54 AM 21.6 °F - 14.7 °F 75% 30.47 in 10.0 mi Calm Calm - N/A   Clear
2:14 AM 20.1 °F - 14.2 °F 78% 30.48 in 10.0 mi Calm Calm - N/A   Clear
2:34 AM 19.6 °F - 14.2 °F 80% 30.48 in 10.0 mi Calm Calm - N/A   Clear
2:54 AM 19.9 °F - 14.4 °F 79% 30.48 in 10.0 mi Calm Calm - N/A   Clear
3:14 AM 20.1 °F - 14.7 °F 80% 30.49 in 10.0 mi Calm Calm - N/A   Clear
3:34 AM 19.9 °F - 14.9 °F 81% 30.49 in 10.0 mi Calm Calm - N/A   Clear
3:54 AM 17.8 °F - 13.1 °F 82% 30.50 in 10.0 mi Calm Calm - N/A   Clear
4:14 AM 17.8 °F - 13.3 °F 83% 30.51 in 10.0 mi Calm Calm - N/A   Clear
4:34 AM 17.4 °F - 12.6 °F 81% 30.52 in 10.0 mi Calm Calm - N/A   Clear
4:54 AM 17.2 °F - 12.0 °F 80% 30.53 in 10.0 mi Calm Calm - N/A   Clear
5:15 AM 16.7 °F - 12.9 °F 85% 30.54 in 10.0 mi Calm Calm - N/A   Clear
5:34 AM 15.6 °F - 11.3 °F 83% 30.54 in 10.0 mi Calm Calm - N/A   Clear
5:54 AM 16.7 °F - 13.1 °F 86% 30.54 in 10.0 mi Calm Calm - N/A   Clear
6:14 AM 16.2 °F - 11.8 °F 83% 30.54 in 10.0 mi Calm Calm - N/A   Clear
6:34 AM 16.7 °F - 12.6 °F 84% 30.54 in 10.0 mi Calm Calm - N/A   Clear
6:54 AM 15.8 °F - 12.6 °F 87% 30.56 in 10.0 mi Calm Calm - N/A   Clear
7:14 AM 16.2 °F 10.6 °F 11.8 °F 83% 30.58 in 10.0 mi West 3.5 mph - N/A   Clear
7:34 AM 19.4 °F - 16.5 °F 89% 30.59 in 10.0 mi Calm Calm - N/A   Clear
7:54 AM 23.4 °F - 19.0 °F 84% 30.60 in 10.0 mi Calm Calm - N/A   Clear
8:14 AM 26.1 °F - 20.5 °F 79% 30.61 in 10.0 mi Calm Calm - N/A   Clear
8:34 AM 28.2 °F - 22.1 °F 78% 30.61 in 10.0 mi Calm Calm - N/A   Clear
8:54 AM 30.6 °F - 23.4 °F 75% 30.61 in 10.0 mi Calm Calm - N/A   Clear
9:14 AM 32.0 °F - 23.4 °F 70% 30.63 in 10.0 mi Calm Calm - N/A   Clear
9:34 AM 33.1 °F - 23.7 °F 68% 30.62 in 10.0 mi Calm Calm - N/A   Clear
9:54 AM 34.0 °F 28.0 °F 23.0 °F 64% 30.62 in 10.0 mi ESE 6.9 mph - N/A   Mostly Cloudy
10:14 AM 35.6 °F 28.6 °F 23.4 °F 61% 30.62 in 10.0 mi ESE 9.2 mph - N/A   Overcast
10:34 AM 35.4 °F 29.7 °F 23.2 °F 61% 30.63 in 10.0 mi SE 6.9 mph - N/A   Overcast
10:54 AM 36.5 °F 30.3 °F 22.6 °F 57% 30.63 in 10.0 mi SSE 8.1 mph - N/A   Overcast
11:14 AM 36.7 °F 29.9 °F 23.0 °F 58% 30.63 in 10.0 mi SE 9.2 mph - N/A   Mostly Cloudy
11:34 AM 37.0 °F 29.8 °F 24.1 °F 59% 30.63 in 10.0 mi SSE 10.4 mph 16.1 mph N/A   Mostly Cloudy
11:54 AM 36.9 °F 30.1 °F 23.7 °F 59% 30.63 in 10.0 mi ESE 9.2 mph - N/A   Overcast
12:14 PM 37.4 °F 30.8 °F 24.1 °F 59% 30.63 in 10.0 mi ESE 9.2 mph - N/A   Mostly Cloudy
12:34 PM 38.7 °F 32.4 °F 22.3 °F 52% 30.61 in 10.0 mi SSE 9.2 mph 16.1 mph N/A   Scattered Clouds
12:54 PM 39.2 °F 32.5 °F 18.3 °F 43% 30.61 in 10.0 mi ESE 10.4 mph 17.3 mph N/A   Clear
1:14 PM 40.1 °F 34.1 °F 16.5 °F 39% 30.60 in 10.0 mi South 9.2 mph 17.3 mph N/A   Clear
1:34 PM 40.3 °F 33.9 °F 14.5 °F 35% 30.60 in 10.0 mi SSE 10.4 mph 17.3 mph N/A   Clear
1:54 PM 40.8 °F 35.0 °F 18.7 °F 41% 30.59 in 10.0 mi South 9.2 mph - N/A   Clear
2:14 PM 41.0 °F 35.8 °F 20.3 °F 44% 30.59 in 10.0 mi SSE 8.1 mph 18.4 mph N/A   Clear
2:34 PM 40.6 °F 34.8 °F 23.4 °F 50% 30.58 in 10.0 mi ESE 9.2 mph - N/A   Clear
2:54 PM 39.7 °F 32.3 °F 23.0 °F 51% 30.58 in 10.0 mi ESE 12.7 mph - N/A   Clear
3:14 PM 39.0 °F 31.8 °F 24.8 °F 57% 30.57 in 10.0 mi ESE 11.5 mph - N/A   Clear
3:34 PM 39.2 °F 32.0 °F 26.4 °F 60% 30.57 in 10.0 mi SE 11.5 mph - N/A   Scattered Clouds
3:54 PM 39.2 °F 32.5 °F 26.2 °F 60% 30.56 in 10.0 mi ESE 10.4 mph - N/A   Scattered Clouds
4:14 PM 38.3 °F 30.9 °F 26.6 °F 63% 30.56 in 10.0 mi ESE 11.5 mph 16.1 mph N/A   Scattered Clouds
4:34 PM 38.7 °F 31.8 °F 27.7 °F 65% 30.54 in 10.0 mi ESE 10.4 mph - N/A   Scattered Clouds
4:54 PM 38.5 °F 30.3 °F 27.9 °F 66% 30.53 in 10.0 mi ESE 13.8 mph - N/A   Clear
5:14 PM 38.3 °F 31.4 °F 28.4 °F 68% 30.53 in 10.0 mi ESE 10.4 mph - N/A   Clear
5:34 PM 38.3 °F 30.9 °F 28.2 °F 67% 30.52 in 10.0 mi ESE 11.5 mph - N/A   Clear
5:54 PM 38.3 °F 31.4 °F 26.4 °F 62% 30.51 in 10.0 mi SE 10.4 mph - N/A   Scattered Clouds
6:14 PM 38.7 °F 32.4 °F 25.0 °F 58% 30.51 in 10.0 mi ESE 9.2 mph - N/A   Clear
6:34 PM 38.5 °F 31.6 °F 24.4 °F 57% 30.50 in 10.0 mi SE 10.4 mph - N/A   Clear
6:54 PM 37.9 °F 30.9 °F 26.4 °F 63% 30.50 in 10.0 mi ESE 10.4 mph - N/A   Clear
7:14 PM 37.8 °F 29.8 °F 27.1 °F 66% 30.49 in 10.0 mi ESE 12.7 mph - N/A   Scattered Clouds
7:34 PM 37.4 °F 30.8 °F 27.5 °F 67% 30.48 in 10.0 mi ESE 9.2 mph 16.1 mph N/A   Scattered Clouds
7:54 PM 37.4 °F 30.3 °F 28.2 °F 69% 30.48 in 10.0 mi SE 10.4 mph 16.1 mph N/A   Clear
8:14 PM 37.4 °F 30.8 °F 28.2 °F 69% 30.48 in 10.0 mi SE 9.2 mph - N/A   Clear
8:34 PM 37.0 °F 30.4 °F 28.4 °F 71% 30.47 in 10.0 mi SE 9.2 mph - N/A   Clear
8:54 PM 37.0 °F 30.4 °F 29.3 °F 74% 30.47 in 10.0 mi ESE 9.2 mph - N/A   Clear
9:14 PM 37.4 °F 29.8 °F 29.8 °F 74% 30.47 in 10.0 mi SE 11.5 mph - N/A   Clear
9:34 PM 37.0 °F 29.8 °F 30.2 °F 76% 30.48 in 10.0 mi ESE 10.4 mph 16.1 mph N/A   Clear
9:54 PM 36.3 °F 28.9 °F 30.7 °F 80% 30.48 in 10.0 mi SE 10.4 mph 16.1 mph N/A   Scattered Clouds
10:14 PM 36.0 °F 29.6 °F 31.1 °F 82% 30.48 in 10.0 mi SE 8.1 mph - N/A   Mostly Cloudy
10:34 PM 36.5 °F 29.7 °F 31.5 °F 82% 30.47 in 10.0 mi SE 9.2 mph 16.1 mph N/A   Overcast
10:54 PM 36.5 °F 29.7 °F 31.1 °F 81% 30.47 in 10.0 mi SE 9.2 mph - N/A   Scattered Clouds
11:14 PM 36.1 °F 29.3 °F 31.3 °F 83% 30.47 in 10.0 mi SE 9.2 mph - N/A   Mostly Cloudy
11:34 PM 36.5 °F 29.7 °F 31.1 °F 81% 30.47 in 10.0 mi SSE 9.2 mph - N/A   Overcast
11:54 PM 36.0 °F 29.6 °F 31.5 °F 84% 30.47 in 10.0 mi SSE 8.1 mph - N/A   Mostly Cloudy